Location: Unspecified
(0.0000°N, 0.0000°E)
Time: 04:16:19
(UTC+00:00)

deb r/b Ablestar - Pass Details

Date: 11 February 2026
Orbit: 889 x 1146 km, 67.2° (Epoch: 11 March)

Event Time Altitude Azimuth Distance (km) Brightness Sun altitude
Rises 05:06:15 0° 352° (N) 3,869 ? -16.5°
Reaches altitude 10° 05:08:57 10° 358° (N) 2,946 ? -15.8°
Maximum altitude 05:15:43 50° 71° (ENE) 1,416 ? -14.2°
Drops below altitude 10° 05:22:40 10° 145° (SE) 3,039 ? -12.5°
Sets 05:25:28 0° 150° (SSE) 4,000 ? -11.8°
